TimeCDT,TemperatureF,Dew PointF,Humidity,Sea Level PressureIn,VisibilityMPH,Wind Direction,Wind SpeedMPH,Gust SpeedMPH,PrecipitationIn,Events,Conditions,WindDirDegrees,DateUTC
12:53 AM,69.1,66.0,90,29.94,10.0,Calm,Calm,-,N/A,,Clear,0,2012-09-02 05:53:00
1:53 AM,68.0,64.9,90,29.94,10.0,Calm,Calm,-,N/A,,Clear,0,2012-09-02 06:53:00
2:36 AM,66.2,64.4,94,29.96,1.8,Calm,Calm,-,N/A,,Clear,0,2012-09-02 07:36:00
2:43 AM,66.2,64.4,94,29.96,0.5,Calm,Calm,-,N/A,Fog,Fog,0,2012-09-02 07:43:00
2:53 AM,66.0,64.0,93,29.94,0.2,Calm,Calm,-,N/A,Fog,Fog,0,2012-09-02 07:53:00
3:20 AM,66.2,64.4,94,29.96,1.0,Calm,Calm,-,N/A,,Clear,0,2012-09-02 08:20:00
3:24 AM,66.2,64.4,94,29.96,4.0,Calm,Calm,-,N/A,,Clear,0,2012-09-02 08:24:00
3:53 AM,66.0,64.9,96,29.94,2.5,Calm,Calm,-,N/A,,Clear,0,2012-09-02 08:53:00
4:05 AM,64.4,62.6,94,29.96,7.0,Calm,Calm,-,N/A,,Clear,0,2012-09-02 09:05:00
4:20 AM,64.4,64.4,100,29.96,1.5,Calm,Calm,-,N/A,,Clear,0,2012-09-02 09:20:00
4:25 AM,64.4,64.4,100,29.96,0.5,Calm,Calm,-,N/A,Fog,Fog,0,2012-09-02 09:25:00
4:49 AM,64.4,62.6,94,29.96,0.5,Calm,Calm,-,N/A,Fog,Fog,0,2012-09-02 09:49:00
4:53 AM,63.0,62.1,97,29.93,0.2,Calm,Calm,-,N/A,Fog,Fog,0,2012-09-02 09:53:00
5:31 AM,64.4,62.6,94,29.95,0.2,Calm,Calm,-,N/A,Fog,Fog,0,2012-09-02 10:31:00
5:37 AM,64.4,62.6,94,29.95,1.0,Calm,Calm,-,N/A,,Clear,0,2012-09-02 10:37:00
5:41 AM,62.6,62.6,100,29.95,3.0,Calm,Calm,-,N/A,,Clear,0,2012-09-02 10:41:00
5:53 AM,64.0,62.1,93,29.92,10.0,Calm,Calm,-,N/A,,Clear,0,2012-09-02 10:53:00
6:09 AM,64.4,62.6,94,29.95,2.5,Calm,Calm,-,N/A,,Partly Cloudy,0,2012-09-02 11:09:00
6:25 AM,62.6,60.8,94,29.96,0.8,Calm,Calm,-,N/A,,Clear,0,2012-09-02 11:25:00
6:34 AM,62.6,60.8,94,29.96,7.0,Calm,Calm,-,N/A,,Clear,0,2012-09-02 11:34:00
6:53 AM,63.0,62.1,97,29.94,7.0,Calm,Calm,-,N/A,,Clear,0,2012-09-02 11:53:00
7:24 AM,62.6,62.6,100,29.97,2.0,Calm,Calm,-,N/A,,Clear,0,2012-09-02 12:24:00
7:39 AM,64.4,62.6,94,29.98,3.0,Calm,Calm,-,N/A,,Clear,0,2012-09-02 12:39:00
7:53 AM,66.0,64.0,93,29.96,5.0,Calm,Calm,-,N/A,,Clear,0,2012-09-02 12:53:00
8:53 AM,71.1,66.9,87,29.96,10.0,Calm,Calm,-,N/A,,Clear,0,2012-09-02 13:53:00
9:53 AM,75.0,66.0,73,29.96,10.0,Calm,Calm,-,N/A,,Clear,0,2012-09-02 14:53:00
10:53 AM,80.1,66.0,62,29.96,10.0,Calm,Calm,-,N/A,,Clear,0,2012-09-02 15:53:00
11:53 AM,84.0,66.0,55,29.94,10.0,Calm,Calm,-,N/A,,Clear,0,2012-09-02 16:53:00
12:53 PM,87.1,64.0,46,29.93,10.0,Calm,Calm,-,N/A,,Clear,0,2012-09-02 17:53:00
1:53 PM,89.1,66.9,48,29.91,10.0,Variable,3.5,-,N/A,,Clear,0,2012-09-02 18:53:00
2:53 PM,91.0,66.0,44,29.89,10.0,NNE,5.8,-,N/A,,Clear,30,2012-09-02 19:53:00
3:53 PM,91.9,66.0,42,29.87,10.0,Calm,Calm,-,N/A,,Clear,0,2012-09-02 20:53:00
4:53 PM,91.9,64.0,39,29.86,10.0,East,3.5,-,N/A,,Clear,90,2012-09-02 21:53:00
5:53 PM,93.0,64.0,38,29.86,10.0,Calm,Calm,-,N/A,,Clear,0,2012-09-02 22:53:00
6:53 PM,89.1,66.0,46,29.85,10.0,East,4.6,-,N/A,,Clear,90,2012-09-02 23:53:00
7:53 PM,82.9,66.0,56,29.85,10.0,Calm,Calm,-,N/A,,Clear,0,2012-09-03 00:53:00
8:53 PM,78.1,66.9,68,29.87,10.0,Calm,Calm,-,N/A,,Clear,0,2012-09-03 01:53:00
9:53 PM,75.9,66.9,74,29.87,10.0,Calm,Calm,-,N/A,,Clear,0,2012-09-03 02:53:00
10:53 PM,75.0,66.9,76,29.86,10.0,East,3.5,-,N/A,,Clear,80,2012-09-03 03:53:00
11:53 PM,75.0,66.9,76,29.86,10.0,Calm,Calm,-,N/A,,Clear,0,2012-09-03 04:53:00